Showing default

OPS 0100 (TRANSIT 15), 2754

Orbit data source: Space-Track

OPS 0100 (TRANSIT 15), 2754 is a payload satellite owned by USN NAVAIR (US) in LEO that was launched on Fri, 14 Apr 1967 UTC via an SCOUT A launch vehicle from the Air Force Western Test Range (AFWTR). Payload-class satellites include a variety of spacecraft equipped with specific instruments for various scientific and technological missions. These include communications satellites like Starlink; space stations such as the ISS; scientific satellites like the Hubble; Earth observation satellites from companies like Planet Labs, Umbra, and HawkEye 360; GPS; miniature CubeSats for education and research; and military/defense satellites.

Loading next visibility...
Identifier
2754, 1967-034A
Orbit
LEO
Country
Flag of USUS
Related business
Manufacturer
APL
Mission
Spacecraft
Bus & Motor
TRANSIT 5, Unknown motor
Mass
~50 kg wet, ~50 kg dry
Launch date (UTC)
1967-04-14 (59 years ago)
Launch vehicle
SCOUT A
Launch site
Air Force Western Test Range (AFWTR)
Object type
Payload
Rocket body
Debris
Shape & HBR
Unknown
Radar Cross Section
Large (>1 m²)

Expand to show TLE details & history
Last TLE update: 11 hours ago

TLE from 11 hours ago
0 OPS 0100 (TRANSIT 15)
1 02754U 67034A   25293.31974059  .00000205  00000-0  27391-3 0  9999
2 02754  90.2305  29.5374 0021241 125.9370 295.7224 13.57337395893575
Epoch: 2025-10-20T07:40Z
TLE epoch observation values (Epoch: 2025-10-20T07:40:25.586Z)
Latitude
61.52717°
Longitude
-115.01578°
Altitude
1,049.177 km
Speed
7.336 km/s
True Right ascension
01h 56m 27s
True Declination
61° 23' 19"
Sunlit
Object was in full shadow at epoch
Visualization orbit readout
Latitude
Unknown
Longitude
Unknown
Altitude
Unknown
Speed
Unknown
Apparent Right ascension
Unknown
Apparent Declination
Unknown
Sunlit
N/A
Visualization observer readout
Local Sidereal Time
13:20:59
Azimuth
Unknown
Elevation
Unknown
Doppler factor
Unknown
Orbital elements
Apogee altitude
1,058.186 km
Perigee altitude
1,026.662 km
Semi-major axis
7,420.561 km
Eccentricity
0.00212
Inclination
90.2305°
RAAN
29.5374°
Arg. of periapsis
125.937°
True anomaly
295.50286°
Mean anomaly
295.7224°
Eccentric anomaly
295.61266°
Mean motion
3.39538 °/min
Orbital period
106.03 mins
BSTAR
0.00027391
Loading maneuver chart data...
Computing Atmospheric mass density...
Loading historical data...
Loading historical data...
Loading historical data...
Loading historical data...
Loading historical data...
Loading historical data...
Loading historical data...

Documentation

Showing up to 5 results
|